This is the latest recevied weather packets stored in our database for station/object W0WFX-2. If no packets are shown the sender has not sent any weather packets the latest 10 day(s).
| Time | Temp. | Humidity | Pressure | Rain* | Wind** | Luminosity | Snow |
|---|---|---|---|---|---|---|---|
| 1788482216 | 32.78° C | 47% | 1010.7 hPa | 0 mm | - | 6 W/m² | - |
| 1788481913 | 32.78° C | 47% | 1010.8 hPa | 0 mm | - | 9 W/m² | - |
| 1788481609 | 33.33° C | 46% | 1010.8 hPa | 0 mm | - | 12 W/m² | - |
| 1788481304 | 33.33° C | 45% | 1010.7 hPa | 0 mm | - | 14 W/m² | - |
| 1788480999 | 33.33° C | 45% | 1010.6 hPa | 0 mm | - | 17 W/m² | - |
| 1788480698 | 33.89° C | 45% | 1010.7 hPa | 0 mm | - | 19 W/m² | - |
| 1788480393 | 33.89° C | 45% | 1010.7 hPa | 0 mm | - | 21 W/m² | - |
| 1788480089 | 33.89° C | 44% | 1010.9 hPa | 0 mm | - | 23 W/m² | - |
| 1788479788 | 34.44° C | 43% | 1010.8 hPa | 0 mm | - | 25 W/m² | - |
| 1788479485 | 34.44° C | 43% | 1010.7 hPa | 0 mm | - | 27 W/m² | - |
| 1788479185 | 34.44° C | 43% | 1010.8 hPa | 0 mm | - | 28 W/m² | - |
| 1788478881 | 34.44° C | 42% | 1010.8 hPa | 0 mm | - | 30 W/m² | - |
| 1788478577 | 35° C | 42% | 1010.7 hPa | 0 mm | - | 32 W/m² | - |
| 1788478273 | 35° C | 41% | 1010.9 hPa | 0 mm | - | 31 W/m² | - |
| 1788477966 | 35° C | 41% | 1010.7 hPa | 0 mm | - | 33 W/m² | - |
| 1788477662 | 35° C | 41% | 1010.7 hPa | 0 mm | - | 33 W/m² | - |
| 1788477351 | 35° C | 41% | 1010.6 hPa | 0 mm | - | 35 W/m² | - |
| 1788477051 | 35.56° C | 40% | 1010.7 hPa | 0 mm | - | 38 W/m² | - |
| 1788476747 | 35.56° C | 40% | 1010.8 hPa | 0 mm | - | 42 W/m² | - |
| 1788476445 | 35.56° C | 39% | 1010.6 hPa | 0 mm | - | 64 W/m² | - |
| 1788476143 | 35.56° C | 39% | 1010.8 hPa | 0 mm | - | 40 W/m² | - |
| 1788475840 | 35.56° C | 39% | 1010.9 hPa | 0 mm | - | 44 W/m² | - |
| 1788475536 | 36.11° C | 39% | 1011 hPa | 0 mm | - | 40 W/m² | - |
| 1788475231 | 36.11° C | 38% | 1011 hPa | 0 mm | - | 42 W/m² | - |
| 1788474931 | 36.11° C | 37% | 1010.9 hPa | 0 mm | - | 42 W/m² | - |
* Rain latest hour (hover to see other rain measurements)
** Current wind speed in m/s (hover to see current wind gust speed)